DFL24T ESGG-ZZZZ

Flight info

Callsign DFL24T
Flight time N/A
Altitude
Route
Aircraft

Departure

Time 2026-05-04 20:20
Airport Göteborg Landvetter Airport (ESGG)

Arrival

Time N/A
Airport ZZZZ
Time Latitude Longitude Altitude Speed Heading
2026-05-04 20:00 57.67429 12.29922 511 ft 0 kts 116°
2026-05-04 20:01 57.67429 12.29921 511 ft 0 kts 116°
2026-05-04 20:04 57.67429 12.29920 511 ft 0 kts 116°
2026-05-04 20:04 57.67430 12.29920 511 ft 0 kts 116°
2026-05-04 20:07 57.67430 12.29919 511 ft 0 kts 116°
2026-05-04 20:09 57.67431 12.29919 511 ft 2 kts 147°
2026-05-04 20:09 57.67432 12.29924 512 ft 0 kts 282°
2026-05-04 20:09 57.67438 12.29888 511 ft 5 kts 297°
2026-05-04 20:10 57.67414 12.29831 511 ft 7 kts 204°
2026-05-04 20:10 57.67363 12.29783 511 ft 8 kts 257°
2026-05-04 20:10 57.67360 12.29677 511 ft 9 kts 288°
2026-05-04 20:10 57.67385 12.29572 511 ft 9 kts 296°
2026-05-04 20:11 57.67409 12.29485 511 ft 6 kts 294°
2026-05-04 20:11 57.67431 12.29399 511 ft 9 kts 295°
2026-05-04 20:11 57.67460 12.29282 511 ft 9 kts 283°
2026-05-04 20:11 57.67461 12.29245 510 ft 0 kts 267°
2026-05-04 20:12 57.67461 12.29246 510 ft 0 kts 267°
2026-05-04 20:16 57.67461 12.29247 510 ft 0 kts 267°
2026-05-04 20:17 57.67461 12.29245 511 ft 1 kts 266°
2026-05-04 20:17 57.67458 12.29180 510 ft 9 kts 265°
2026-05-04 20:17 57.67431 12.29032 511 ft 12 kts 217°
2026-05-04 20:17 57.67410 12.29007 510 ft 0 kts 208°
2026-05-04 20:18 57.67408 12.29006 511 ft 2 kts 208°
2026-05-04 20:18 57.67352 12.28955 511 ft 17 kts 208°
2026-05-04 20:18 57.67135 12.28748 536 ft 59 kts 208°
2026-05-04 20:18 57.66613 12.28305 620 ft 100 kts 214°
2026-05-04 20:19 57.65915 12.27656 610 ft 123 kts 211°
2026-05-04 20:19 57.65127 12.26930 683 ft 129 kts 216°
2026-05-04 20:19 57.64255 12.26341 623 ft 137 kts 194°
2026-05-04 20:19 57.63281 12.26367 582 ft 143 kts 174°
2026-05-04 20:20 57.62435 12.27376 618 ft 153 kts 135°
2026-05-04 20:20 57.62103 12.29297 750 ft 162 kts 96°
2026-05-04 20:20 57.62417 12.31228 1112 ft 156 kts 59°
2026-05-04 20:20 57.63185 12.32584 1141 ft 152 kts 33°
2026-05-04 20:21 57.64031 12.33758 1172 ft 151 kts 33°
2026-05-04 20:21 57.64868 12.34907 1171 ft 154 kts 33°
2026-05-04 20:21 57.66573 12.37312 1169 ft 152 kts 33°
2026-05-04 20:22 57.67536 12.38034 1160 ft 147 kts
2026-05-04 20:22 57.68517 12.37919 1175 ft 142 kts 348°
2026-05-04 20:22 57.69507 12.37664 1168 ft 149 kts 346°
2026-05-04 20:22 57.70466 12.37137 1167 ft 128 kts 329°
2026-05-04 20:23 57.71248 12.36246 1167 ft 139 kts 323°
2026-05-04 20:23 57.72146 12.36057 1177 ft 134 kts
2026-05-04 20:23 57.72880 12.37100 1183 ft 144 kts 43°
2026-05-04 20:23 57.73540 12.38682 1171 ft 148 kts 47°
2026-05-04 20:24 57.74395 12.39295 1150 ft 127 kts 348°
2026-05-04 20:24 57.74928 12.38296 1158 ft 110 kts 280°
2026-05-04 20:24 57.74501 12.37184 1186 ft 122 kts 217°
2026-05-04 20:24 57.73746 12.36285 1196 ft 127 kts 218°
2026-05-04 20:25 57.72991 12.35381 1183 ft 128 kts 218°
2026-05-04 20:25 57.72233 12.34499 1176 ft 130 kts 218°
2026-05-04 20:25 57.71481 12.33585 1171 ft 129 kts 218°
2026-05-04 20:25 57.70729 12.32655 1171 ft 130 kts 218°
2026-05-04 20:26 57.70225 12.32041 1111 ft 131 kts 218°
2026-05-04 20:26 57.69465 12.31107 1049 ft 130 kts 218°
2026-05-04 20:26 57.68683 12.30240 984 ft 132 kts 215°
2026-05-04 20:26 57.67864 12.29411 775 ft 134 kts 210°
2026-05-04 20:27 57.67029 12.28644 658 ft 132 kts 210°
2026-05-04 20:27 57.66203 12.27953 882 ft 131 kts 211°
2026-05-04 20:27 57.65385 12.27231 1099 ft 131 kts 211°
2026-05-04 20:27 57.64480 12.26913 1093 ft 137 kts 186°
2026-05-04 20:28 57.63567 12.27666 1088 ft 155 kts 144°
2026-05-04 20:28 57.63151 12.29559 1088 ft 166 kts 97°
2026-05-04 20:28 57.63270 12.31604 1107 ft 161 kts 84°
2026-05-04 20:28 57.63443 12.33635 1100 ft 155 kts 77°
2026-05-04 20:29 57.63695 12.35588 1102 ft 156 kts 77°
2026-05-04 20:29 57.63945 12.37563 1102 ft 156 kts 77°
2026-05-04 20:29 57.64165 12.39607 1099 ft 157 kts 80°
2026-05-04 20:29 57.64813 12.41175 1035 ft 163 kts 22°
2026-05-04 20:30 57.65839 12.40776 1073 ft 153 kts 316°
2026-05-04 20:30 57.66034 12.38988 1078 ft 148 kts 253°
2026-05-04 20:30 57.65197 12.37941 1078 ft 160 kts 193°
2026-05-04 20:30 57.64221 12.38941 1055 ft 178 kts 132°
2026-05-04 20:31 57.64142 12.41214 1080 ft 181 kts 68°
2026-05-04 20:31 57.65086 12.42546 1117 ft 170 kts
2026-05-04 20:31 57.66093 12.41800 1086 ft 157 kts 309°
2026-05-04 20:31 57.66215 12.39938 1102 ft 149 kts 252°
2026-05-04 20:32 57.65382 12.38871 1104 ft 158 kts 194°
2026-05-04 20:32 57.64374 12.39759 1117 ft 172 kts 136°
2026-05-04 20:32 57.64016 12.41848 1110 ft 174 kts 92°
2026-05-04 20:32 57.64689 12.43658 833 ft 180 kts 26°
2026-05-04 20:33 57.65749 12.44478 815 ft 148 kts 17°
2026-05-04 20:33 57.66702 12.44365 813 ft 138 kts 336°
2026-05-04 20:33 57.67113 12.42859 1019 ft 133 kts 271°
2026-05-04 20:33 57.66600 12.41531 1212 ft 132 kts 215°
2026-05-04 20:34 57.65678 12.41681 1216 ft 146 kts 160°
2026-05-04 20:34 57.65120 12.43276 1223 ft 155 kts 109°
2026-05-04 20:34 57.65336 12.45180 1183 ft 156 kts 55°
2026-05-04 20:34 57.66266 12.45983 1185 ft 145 kts
2026-05-04 20:35 57.67165 12.45674 1232 ft 127 kts 331°
2026-05-04 20:35 57.67779 12.44639 1238 ft 115 kts 302°
2026-05-04 20:35 57.68037 12.43291 1229 ft 114 kts 279°
2026-05-04 20:35 57.68114 12.41556 1184 ft 154 kts 263°
2026-05-04 20:36 57.67833 12.39727 1207 ft 131 kts 254°
2026-05-04 20:36 57.67592 12.38118 1204 ft 129 kts 254°
2026-05-04 20:36 57.67427 12.36460 1157 ft 136 kts 270°
2026-05-04 20:36 57.67697 12.34735 1086 ft 136 kts 288°
2026-05-04 20:37 57.67989 12.33030 856 ft 130 kts 288°
2026-05-04 20:37 57.68395 12.31860 1136 ft 76 kts 300°
2026-05-04 20:37 57.68639 12.31083 1192 ft 67 kts 289°
2026-05-04 20:37 57.68590 12.30230 898 ft 75 kts 235°
2026-05-04 20:38 57.68198 12.29851 827 ft 57 kts 216°
2026-05-04 20:38 57.67867 12.29507 744 ft 49 kts 224°
2026-05-04 20:38 57.67586 12.29170 614 ft 48 kts 217°
2026-05-04 20:38 57.67283 12.28910 546 ft 46 kts 218°
2026-05-04 20:39 57.67026 12.28677 517 ft 33 kts 221°
2026-05-04 20:39 57.66884 12.28539 509 ft 20 kts 205°
2026-05-04 20:39 57.66726 12.28382 508 ft 30 kts 197°
2026-05-04 20:39 57.66613 12.28291 508 ft 1 kts 83°
2026-05-04 20:40 57.66645 12.28398 508 ft 12 kts 59°
2026-05-04 20:40 57.66699 12.28546 507 ft 16 kts 52°
2026-05-04 20:40 57.66774 12.28737 508 ft 14 kts 56°
2026-05-04 20:40 57.66842 12.28835 508 ft 14 kts 25°